Flag for Germany Weather past 2 weeks in Lehrte, Lower Saxony, Germany

Now
80 °F

Scattered clouds.


Feels Like: 81 °F
Forecast: 64 / 80 °F
Wind: 3 mph from Northeast

Location: Hannover

Current Time: Jul 22, 2014 at 7:33:31 PM

Latest Report: Jul 22, 2014 at 7:00 PM


Visibility: 25 mi

Pressure: 30.05 "Hg

Humidity: 50%

Dew point: 60 °F

Location of LehrteLocation

Historic Weather in Lehrte — Graph

°F

Lehrte temperature yesterday

Maximum temperature yesterday: 76 °F (at 4:00 PM)
Minimum temperature yesterday: 67 °F (at 7:00 AM)
Average temperature yesterday: 72 °F

Past Weeks' High & Low Weather Summary

 TemperatureHumidityPressure
High91 °F (Jul 19, 4:00 PM)100% (Jul 8, 12:00 PM)30.20 "Hg (Jul 8, 12:00 PM)
Low51 °F (Jul 12, 6:00 AM)25% (Jul 19, 4:00 PM)29.59 "Hg (Jul 9, 3:00 PM)
Average69 °F75%29.93 "Hg
* Reported Jul 7 6:00 PM — Jul 22 6:00 PM, Lehrte, Weather by CustomWeather, © 2014

Note: Actual official high and low records may vary slightly from our data, if they occured in-between our weather recording intervals... More about our weather records

Advertising

Lehrte weather history for previous 24 hours

 ConditionsComfort  
Time TempWeatherWind HumidityBarometerVisibility
6:00 PM
Jul 22
84 °FPartly sunny.5 mph44%30.04 "Hg25 mi
5:00 PM83 °FPartly sunny.5 mph44%30.04 "Hg25 mi
4:00 PM81 °FPartly sunny.5 mph52%30.05 "Hg25 mi
3:00 PM80 °FPartly sunny.5 mph55%30.06 "Hg22 mi
2:00 PM78 °FPartly sunny.5 mph64%30.06 "Hg22 mi
1:00 PM76 °FPartly sunny.5 mph68%30.07 "Hg22 mi
12:00 PM71 °FPartly sunny.3 mph76%30.07 "Hg19 mi
10:00 AM66 °FOvercast.5 mph88%30.07 "Hg9 mi
9:00 AM65 °FOvercast.5 mph90%30.06 "Hg7 mi
8:00 AM64 °FLow clouds.5 mph93%30.04 "Hg6 mi
7:00 AM62 °FLow clouds.5 mph95%30.03 "Hg7 mi
6:00 AM61 °FPartly sunny.3 mph95%30.02 "Hg16 mi
4:00 AM61 °FPassing clouds.2 mph89%29.99 "Hg16 mi
3:00 AM61 °FPassing clouds.1 mph86%30.00 "Hg16 mi
2:00 AM66 °FPassing clouds.3 mph73%29.98 "Hg16 mi
1:00 AM67 °FPassing clouds.3 mph72%29.97 "Hg16 mi
12:00 AM69 °FOvercast.3 mph68%29.95 "Hg16 mi
10:00 PM
Jul 21
73 °FOvercast.5 mph62%29.93 "Hg12 mi
9:00 PM76 °FOvercast.3 mph67%29.91 "Hg12 mi
8:00 PM74 °FOvercast.3 mph87%29.90 "Hg9 mi
7:00 PM75 °FOvercast.3 mph84%29.89 "Hg47 mi
Weather by CustomWeather, © 2014

See weather overviewHow to use our weather pages